Weather History for KMUI - August, 2013

Change the Weather History Date:

Monday, August 19, 2013

  Actual Average Record
Temperature  
Mean Temperature 66 °F -  
Max Temperature 75 °F 81 °F 91 °F (2002)
Min Temperature 58 °F 65 °F 52 °F (2012)
Cooling Degree Days 2    
Growing Degree Days 16 (Base 50)    
Moisture  
Dew Point 62 °F    
Average Humidity 83    
Maximum Humidity 99    
Minimum Humidity 68    
Precipitation  
Precipitation 0.00 in - - ()
Sea Level Pressure  
Sea Level Pressure 30.13 in    
Wind  
Wind Speed 2 mph (SSW)    
Max Wind Speed 8 mph    
Max Gust Speed -    
Visibility 9 miles    
Events Rain    
Averages and records for this station are not official NWS values.
T = Trace of Precipitation, MM = Missing Value Source: NWS Daily Summary

Daily Weather History Graph

Daily Weather History Graph

Search for Another Location

Airport or City:

Trip Planner

Search our weather history database for the weather conditions in past years. The results will help you decide how hot, cold, wet, or windy it might be!

Date:

Astronomy

Aug. 19, 2013 Rise Set
Actual Time 6:21 AM EDT 7:57 PM EDT
Civil Twilight 5:52 AM EDT 8:26 PM EDT
Nautical Twilight 5:17 AM EDT 9:01 PM EDT
Astronomical Twilight 4:40 AM EDT 9:38 PM EDT
Moon 6:47 PM EDT (8/19) 4:37 AM EDT (8/19)
Length of Visible Light 14h 34m
Length of Day
13h 36m
Waxing Gibbous, 97% of the Moon is Illuminated
Aug 19
Waxing Gibbous
Aug 20
Full
Aug 28
Last Quarter
Sep 5
New
Sep 12
First Quarter

Hourly Weather History & Observations

Time (EDT) Temp. Dew Point Humidity Pressure Visibility Wind Dir Wind Speed Gust Speed Precip Events Conditions
12:58 AM 60.3 °F 59.5 °F 97% 30.19 in 10.0 mi Calm Calm - N/A   Clear
1:58 AM 59.2 °F 58.8 °F 99% 30.17 in 10.0 mi Calm Calm - N/A   Mostly Cloudy
2:58 AM 58.8 °F 58.5 °F 99% 30.17 in 6.0 mi Calm Calm - N/A   Clear
3:58 AM 58.3 °F 58.1 °F 99% 30.16 in 5.0 mi Calm Calm - N/A   Clear
4:58 AM 58.5 °F 58.1 °F 99% 30.17 in 8.0 mi Calm Calm - N/A   Scattered Clouds
5:58 AM 58.3 °F 57.9 °F 99% 30.16 in 5.0 mi Calm Calm - N/A   Scattered Clouds
6:58 AM 58.6 °F 58.3 °F 99% 30.17 in 4.0 mi Calm Calm - N/A   Scattered Clouds
7:58 AM 60.6 °F 60.3 °F 99% 30.16 in 10.0 mi North 1.2 mph - N/A   Mostly Cloudy
8:58 AM 63.3 °F 60.6 °F 91% 30.18 in 10.0 mi SW 4.6 mph - N/A   Mostly Cloudy
9:58 AM 66.2 °F 60.1 °F 81% 30.17 in 10.0 mi WSW 4.6 mph - N/A   Partly Cloudy
10:24 AM 66.2 °F 59.0 °F 78% 30.14 in 10.0 mi Calm Calm - N/A Rain Light Rain
10:53 AM 68.0 °F 62.6 °F 83% 30.14 in 10.0 mi SSE 3.5 mph - N/A   Scattered Clouds
10:58 AM 67.6 °F 61.9 °F 82% 30.15 in 10.0 mi SSE 3.5 mph - 0.00 in   Scattered Clouds
11:58 AM 69.4 °F 62.8 °F 79% 30.14 in 10.0 mi WSW 5.8 mph - N/A   Scattered Clouds
12:58 PM 70.7 °F 61.0 °F 71% 30.13 in 10.0 mi Variable 3.5 mph - N/A   Mostly Cloudy
1:52 PM 71.6 °F 60.8 °F 69% 30.12 in 10.0 mi Variable 3.5 mph - N/A   Mostly Cloudy
1:58 PM 71.6 °F 61.3 °F 70% 30.13 in 10.0 mi SSW 5.8 mph - N/A   Mostly Cloudy
2:00 PM 71.6 °F 60.8 °F 69% 30.12 in 10.0 mi SSW 5.8 mph - N/A   Mostly Cloudy
2:58 PM 73.9 °F 63.5 °F 70% 30.11 in 10.0 mi SSE 6.9 mph - N/A   Partly Cloudy
3:58 PM 75.0 °F 63.9 °F 68% 30.09 in 10.0 mi South 6.9 mph - N/A   Mostly Cloudy
4:12 PM 75.2 °F 64.4 °F 69% 30.09 in 10.0 mi SSE 6.9 mph - N/A   Mostly Cloudy
4:14 PM 75.2 °F 64.4 °F 69% 30.09 in 10.0 mi South 5.8 mph - N/A   Mostly Cloudy
4:30 PM 75.2 °F 64.4 °F 69% 30.09 in 10.0 mi SSW 5.8 mph - N/A   Mostly Cloudy
4:34 PM 75.2 °F 64.4 °F 69% 30.09 in 10.0 mi Variable 4.6 mph - N/A   Mostly Cloudy
4:58 PM 74.7 °F 64.4 °F 70% 30.09 in 10.0 mi South 8.1 mph - N/A   Mostly Cloudy
5:08 PM 75.2 °F 64.4 °F 69% 30.09 in 10.0 mi SSW 8.1 mph - N/A   Scattered Clouds
5:58 PM 73.9 °F 64.4 °F 72% 30.09 in 10.0 mi SW 6.9 mph - N/A   Clear
6:58 PM 72.7 °F 64.8 °F 76% 30.09 in 10.0 mi South 5.8 mph - N/A   Clear
7:58 PM 68.2 °F 66.6 °F 95% 30.09 in 10.0 mi Calm Calm - N/A   Clear
8:58 PM 65.8 °F 65.7 °F 99% 30.10 in 10.0 mi WSW 2.3 mph - N/A   Clear
9:58 PM 64.8 °F 64.6 °F 99% 30.11 in 8.0 mi Calm Calm - N/A   Clear
10:58 PM 63.0 °F 62.8 °F 99% 30.12 in 4.0 mi NNE 2.3 mph - N/A   Clear
11:58 PM 63.1 °F 63.0 °F 99% 30.12 in 5.0 mi Calm Calm - N/A   Clear